Hourly Data Report for September 27, 2017

All times are specified in Local Standard Time (LST). Add 1 hour to adjust for Daylight Saving Time where and when it is observed.

POINT LEPREAU CS
NEW BRUNSWICK

45°04'23.040" N
66°26'57.090" W
6.00 m
8104201
71699
WPE

Download Data

Hourly Data (September 2017)
Hourly Data Report for September 27, 2017
Temp Definition
°C
Dew Point Temp Definition
°C
Rel Hum Definition
%
Wind Dir Definition
10's deg

Wind Spd Definition
km/h
Visibility Definition
km
Stn Press Definition
kPa
Hmdx Definition


Wind Chill Definition


Weather Definition


TIME
00:00 14.6 LegendMM 100 6 8   101.49     LegendNANA
01:00 15.3 LegendMM 100 9 10   101.50     LegendNANA
02:00 14.9 14.7 99 8 11   101.46     LegendNANA
03:00 15.2 15.1 99 8 13   101.43     LegendNANA
04:00 14.6 LegendMM 100 6 14   101.40     LegendNANA
05:00 14.3 LegendMM 100 7 10   101.37     LegendNANA
06:00 14.2 LegendMM 100 7 9   101.35     LegendNANA
07:00 14.3 LegendMM 100 7 9   101.38     LegendNANA
08:00 14.5 LegendMM 100 8 10   101.34     LegendNANA
09:00 14.4 LegendMM 100 9 11   101.36     LegendNANA
10:00 14.6 LegendMM 100 10 8   101.33     LegendNANA
11:00 14.6 LegendMM 100 10 9   101.26     LegendNANA
12:00 15.2 LegendMM 100 11 6   101.20     LegendNANA
13:00 15.3 LegendMM 100 11 6   101.13     LegendNANA
14:00 15.0 LegendMM 100 14 4   101.07     LegendNANA
15:00 15.2 LegendMM 100 18 7   100.98     LegendNANA
16:00 15.3 LegendMM 100 21 7   100.93     LegendNANA
17:00 15.1 LegendMM 100 18 10   100.87     LegendNANA
18:00 14.9 LegendMM 100 20 14   100.79     LegendNANA
19:00 15.2 LegendMM 100 19 11   100.79     LegendNANA
20:00 15.4 LegendMM 100 21 8   100.75     LegendNANA
21:00 15.3 LegendMM 100 19 15   100.67     LegendNANA
22:00 15.2 LegendMM 100 22 6   100.66     LegendNANA
23:00 16.5 LegendMM 100 20 11   100.59     LegendNANA

Notes on Data Quality.

Legend

  • E = Estimated
  • M = Missing
  • NA = Not Available
  • ‡ = Partner data that is not subject to review by the National Climate Archives
Date modified: